| time (UTC) | temp F | wind direction | speed MPH | gust MPH | rain 1hr in | rain 24hr in | rain mn in | humidity % | barometer mb |
| 20260903020330 | 82 | 0 | 0.0 | 0.0 | 0.00 | 0.00 | 0.00 | 56 | 1016.7 |
| 20260903015258 | 82 | 225 | 0.0 | 1.0 | 0.00 | 0.00 | 0.00 | 56 | 1016.5 |
| 20260903014235 | 82 | 225 | 0.0 | 0.0 | 0.00 | 0.00 | 0.00 | 56 | 1016.6 |
| 20260903013212 | 83 | 225 | 0.0 | 0.0 | 0.00 | 0.00 | 0.00 | 56 | 1016.5 |
| 20260903012224 | 83 | 225 | 0.0 | 1.0 | 0.00 | 0.00 | 0.00 | 55 | 1016.5 |
| 20260903011150 | 83 | 226 | 0.0 | 0.0 | 0.00 | 0.00 | 0.00 | 55 | 1016.4 |
| 20260903010200 | 84 | 226 | 0.0 | 0.0 | 0.00 | 0.00 | 0.00 | 55 | 1016.3 |
| 20260903005140 | 84 | 226 | 0.0 | 0.0 | 0.00 | 0.00 | 0.00 | 54 | 1016.3 |
| 20260903004154 | 85 | 226 | 0.0 | 0.0 | 0.00 | 0.00 | 0.00 | 53 | 1016.2 |
| 20260903003158 | 85 | 226 | 0.0 | 0.0 | 0.00 | 0.00 | 0.00 | 52 | 1016.1 |
| 20260903002130 | 86 | 225 | 0.0 | 3.0 | 0.00 | 0.00 | 0.00 | 51 | 1016.0 |
| 20260903000019 | 87 | 226 | 0.0 | 1.0 | 0.00 | 0.00 | 0.00 | 50 | 1016.1 |
| 20260902234951 | 88 | 224 | 0.0 | 4.0 | 0.00 | 0.00 | 0.00 | 49 | 1015.9 |
| 20260902234014 | 88 | 227 | 0.0 | 4.0 | 0.00 | 0.00 | 0.00 | 49 | 1015.9 |
| 20260902233022 | 88 | 227 | 0.0 | 5.0 | 0.00 | 0.00 | 0.00 | 48 | 1015.9 |
| 20260902231955 | 89 | 219 | 0.0 | 5.0 | 0.00 | 0.00 | 0.00 | 47 | 1015.8 |
| 20260902230952 | 89 | 224 | 1.0 | 6.0 | 0.00 | 0.00 | 0.00 | 46 | 1015.8 |
| 20260902225934 | 90 | 225 | 0.0 | 6.0 | 0.00 | 0.00 | 0.00 | 45 | 1015.7 |
| 20260902223749 | 91 | 257 | 0.0 | 5.0 | 0.00 | 0.00 | 0.00 | 44 | 1015.9 |
| 20260902221619 | 91 | 286 | 1.0 | 8.0 | 0.00 | 0.00 | 0.00 | 42 | 1016.0 |
| 20260902220605 | 92 | 252 | 1.0 | 8.0 | 0.00 | 0.00 | 0.00 | 40 | 1016.1 |
| 20260902214426 | 93 | 229 | 2.0 | 12.0 | 0.00 | 0.00 | 0.00 | 39 | 1016.0 |
| 20260902213437 | 93 | 201 | 2.0 | 9.0 | 0.00 | 0.00 | 0.00 | 38 | 1016.1 |
| 20260902212452 | 94 | 290 | 2.0 | 9.0 | 0.00 | 0.00 | 0.00 | 38 | 1016.1 |
| 20260902210400 | 95 | 217 | 2.0 | 8.0 | 0.00 | 0.00 | 0.00 | 37 | 1016.1 |
| 20260902205416 | 95 | 276 | 1.0 | 8.0 | 0.00 | 0.00 | 0.00 | 36 | 1016.1 |
| 20260902204404 | 95 | 309 | 2.0 | 12.0 | 0.00 | 0.00 | 0.00 | 37 | 1016.2 |
| 20260902203356 | 95 | 234 | 2.0 | 12.0 | 0.00 | 0.00 | 0.00 | 35 | 1016.3 |
| 20260902202335 | 96 | 279 | 3.0 | 10.0 | 0.00 | 0.00 | 0.00 | 36 | 1016.4 |
| 20260902201334 | 95 | 296 | 2.0 | 8.0 | 0.00 | 0.00 | 0.00 | 38 | 1016.7 |
| 20260902200305 | 95 | 234 | 2.0 | 9.0 | 0.00 | 0.00 | 0.00 | 37 | 1016.8 |
| 20260902195321 | 95 | 205 | 2.0 | 9.0 | 0.00 | 0.00 | 0.00 | 38 | 1016.9 |
| 20260902194318 | 95 | 316 | 2.0 | 9.0 | 0.00 | 0.00 | 0.00 | 38 | 1016.9 |
| 20260902193329 | 94 | 234 | 2.0 | 9.0 | 0.00 | 0.00 | 0.00 | 39 | 1017.0 |
| 20260902192259 | 94 | 215 | 2.0 | 9.0 | 0.00 | 0.00 | 0.00 | 40 | 1017.0 |
| 20260902191227 | 94 | 232 | 3.0 | 13.0 | 0.00 | 0.00 | 0.00 | 39 | 1017.0 |
| 20260902185032 | 93 | 232 | 2.0 | 10.0 | 0.00 | 0.00 | 0.00 | 39 | 1017.3 |
| 20260902182850 | 92 | 207 | 2.0 | 7.0 | 0.00 | 0.00 | 0.00 | 41 | 1017.6 |
| 20260902181822 | 92 | 238 | 2.0 | 11.0 | 0.00 | 0.00 | 0.00 | 42 | 1017.7 |
| 20260902180845 | 91 | 234 | 0.0 | 6.0 | 0.00 | 0.00 | 0.00 | 43 | 1017.7 |
| 20260902175858 | 91 | 274 | 2.0 | 6.0 | 0.00 | 0.00 | 0.00 | 41 | 1017.9 |
| 20260902173816 | 91 | 296 | 2.0 | 10.0 | 0.00 | 0.00 | 0.00 | 43 | 1018.2 |
| 20260902172759 | 91 | 211 | 2.0 | 10.0 | 0.00 | 0.00 | 0.00 | 43 | 1018.3 |
| 20260902171754 | 91 | 194 | 2.0 | 9.0 | 0.00 | 0.00 | 0.00 | 44 | 1018.4 |
| 20260902170819 | 91 | 282 | 2.0 | 8.0 | 0.00 | 0.00 | 0.00 | 44 | 1018.4 |
| 20260902165835 | 91 | 336 | 3.0 | 8.0 | 0.00 | 0.00 | 0.00 | 43 | 1018.4 |
| 20260902164849 | 90 | 311 | 2.0 | 8.0 | 0.00 | 0.00 | 0.00 | 44 | 1018.5 |
| 20260902163832 | 90 | 286 | 2.0 | 9.0 | 0.00 | 0.00 | 0.00 | 44 | 1018.5 |
| 20260902162839 | 89 | 279 | 2.0 | 9.0 | 0.00 | 0.00 | 0.00 | 45 | 1018.5 |
| 20260902161814 | 89 | 223 | 1.0 | 8.0 | 0.00 | 0.00 | 0.00 | 46 | 1018.5 |
| 20260902160810 | 89 | 209 | 2.0 | 8.0 | 0.00 | 0.00 | 0.00 | 47 | 1018.5 |
| 20260902155809 | 88 | 227 | 1.0 | 6.0 | 0.00 | 0.00 | 0.00 | 48 | 1018.4 |
| 20260902154830 | 87 | 254 | 2.0 | 7.0 | 0.00 | 0.00 | 0.00 | 48 | 1018.5 |
| 20260902153817 | 87 | 209 | 2.0 | 7.0 | 0.00 | 0.00 | 0.00 | 49 | 1018.6 |
| 20260902152748 | 86 | 270 | 1.0 | 8.0 | 0.00 | 0.00 | 0.00 | 50 | 1018.6 |
| 20260902151801 | 85 | 201 | 2.0 | 8.0 | 0.00 | 0.00 | 0.00 | 50 | 1018.7 |
| 20260902150808 | 85 | 308 | 2.0 | 8.0 | 0.00 | 0.00 | 0.00 | 50 | 1018.6 |
| 20260902145758 | 84 | 221 | 2.0 | 8.0 | 0.00 | 0.00 | 0.00 | 50 | 1018.5 |
| 20260902144742 | 83 | 35 | 2.0 | 7.0 | 0.00 | 0.00 | 0.00 | 51 | 1018.6 |
| 20260902142648 | 82 | 223 | 1.0 | 9.0 | 0.00 | 0.00 | 0.00 | 50 | 1018.5 |
| 20260902140525 | 80 | 232 | 0.0 | 5.0 | 0.00 | 0.00 | 0.00 | 49 | 1018.5 |
| 20260902135531 | 80 | 355 | 1.0 | 8.0 | 0.00 | 0.00 | 0.00 | 49 | 1018.4 |
| 20260902134509 | 79 | 224 | 1.0 | 8.0 | 0.00 | 0.00 | 0.00 | 49 | 1018.4 |
| 20260902133446 | 78 | 228 | 2.0 | 8.0 | 0.00 | 0.00 | 0.00 | 49 | 1018.4 |
| 20260902132452 | 77 | 0 | 2.0 | 9.0 | 0.00 | 0.00 | 0.00 | 49 | 1018.4 |
| 20260902131423 | 77 | 0 | 1.0 | 9.0 | 0.00 | 0.00 | 0.00 | 49 | 1018.4 |
| 20260902130402 | 76 | 0 | 1.0 | 5.0 | 0.00 | 0.00 | 0.00 | 49 | 1018.3 |
| 20260902124247 | 75 | 0 | 0.0 | 7.0 | 0.00 | 0.00 | 0.00 | 51 | 1018.3 |
| 20260902123229 | 74 | 0 | 0.0 | 3.0 | 0.00 | 0.00 | 0.00 | 52 | 1018.3 |
| 20260902122214 | 74 | 0 | 0.0 | 4.0 | 0.00 | 0.00 | 0.00 | 52 | 1018.2 |
| 20260902121144 | 73 | 0 | 1.0 | 5.0 | 0.00 | 0.00 | 0.00 | 53 | 1018.2 |
| 20260902120205 | 73 | 0 | 1.0 | 5.0 | 0.00 | 0.00 | 0.00 | 53 | 1018.2 |
| 20260902115132 | 73 | 0 | 1.0 | 5.0 | 0.00 | 0.00 | 0.00 | 54 | 1018.2 |
| 20260902114127 | 72 | 0 | 0.0 | 4.0 | 0.00 | 0.00 | 0.00 | 54 | 1018.1 |
| 20260902113151 | 72 | 0 | 0.0 | 1.0 | 0.00 | 0.00 | 0.00 | 54 | 1018.0 |
| 20260902105918 | 73 | 0 | 0.0 | 2.0 | 0.00 | 0.00 | 0.00 | 54 | 1017.9 |
| 20260902104904 | 73 | 0 | 0.0 | 4.0 | 0.00 | 0.00 | 0.00 | 54 | 1017.9 |
| 20260902103857 | 73 | 0 | 0.0 | 4.0 | 0.00 | 0.00 | 0.00 | 53 | 1017.7 |
| 20260902102849 | 73 | 0 | 0.0 | 2.0 | 0.00 | 0.00 | 0.00 | 53 | 1017.8 |
| 20260902101817 | 73 | 0 | 0.0 | 1.0 | 0.00 | 0.00 | 0.00 | 53 | 1017.9 |
| 20260902100838 | 73 | 0 | 0.0 | 2.0 | 0.00 | 0.00 | 0.00 | 53 | 1017.8 |
| 20260902095854 | 73 | 0 | 0.0 | 0.0 | 0.00 | 0.00 | 0.00 | 54 | 1017.9 |
| 20260902094919 | 73 | 0 | 0.0 | 3.0 | 0.00 | 0.00 | 0.00 | 54 | 1017.9 |
| 20260902092743 | 73 | 0 | 0.0 | 0.0 | 0.00 | 0.00 | 0.00 | 54 | 1017.9 |
| 20260902091759 | 73 | 0 | 0.0 | 0.0 | 0.00 | 0.00 | 0.00 | 54 | 1017.9 |
| 20260902090816 | 73 | 0 | 0.0 | 0.0 | 0.00 | 0.00 | 0.00 | 54 | 1017.9 |
| 20260902085811 | 74 | 0 | 0.0 | 0.0 | 0.00 | 0.00 | 0.00 | 54 | 1017.9 |
| 20260902084803 | 74 | 0 | 0.0 | 0.0 | 0.00 | 0.00 | 0.00 | 54 | 1017.8 |
| 20260902083732 | 74 | 0 | 0.0 | 0.0 | 0.00 | 0.00 | 0.00 | 54 | 1017.7 |
| 20260902081522 | 74 | 0 | 0.0 | 0.0 | 0.00 | 0.00 | 0.00 | 54 | 1017.6 |
| 20260902080530 | 74 | 0 | 0.0 | 0.0 | 0.00 | 0.00 | 0.00 | 54 | 1017.6 |
| 20260902075544 | 74 | 0 | 0.0 | 0.0 | 0.00 | 0.00 | 0.00 | 54 | 1017.5 |
| 20260902073416 | 75 | 0 | 0.0 | 0.0 | 0.00 | 0.00 | 0.00 | 54 | 1017.5 |
| 20260902072409 | 75 | 0 | 0.0 | 0.0 | 0.00 | 0.00 | 0.00 | 55 | 1017.4 |
| 20260902071353 | 75 | 0 | 0.0 | 0.0 | 0.00 | 0.00 | 0.00 | 55 | 1017.4 |
| 20260902070355 | 75 | 0 | 0.0 | 0.0 | 0.00 | 0.00 | 0.00 | 55 | 1017.5 |
| 20260902065404 | 75 | 0 | 0.0 | 0.0 | 0.00 | 0.00 | 0.00 | 55 | 1017.4 |
| 20260902064352 | 76 | 0 | 0.0 | 0.0 | 0.00 | 0.00 | 0.00 | 56 | 1017.5 |
| 20260902063350 | 76 | 0 | 0.0 | 0.0 | 0.00 | 0.00 | 0.00 | 56 | 1017.5 |
| 20260902062325 | 76 | 0 | 0.0 | 0.0 | 0.00 | 0.00 | 0.00 | 56 | 1017.6 |
| 20260902060240 | 77 | 0 | 0.0 | 0.0 | 0.00 | 0.00 | 0.00 | 56 | 1017.5 |
| 20260902055247 | 77 | 240 | 0.0 | 0.0 | 0.00 | 0.00 | 0.00 | 56 | 1017.5 |
| 20260902054234 | 77 | 0 | 0.0 | 0.0 | 0.00 | 0.00 | 0.00 | 56 | 1017.4 |
| 20260902053253 | 77 | 212 | 0.0 | 4.0 | 0.00 | 0.00 | 0.00 | 56 | 1017.3 |
| 20260902052254 | 77 | 0 | 0.0 | 3.0 | 0.00 | 0.00 | 0.00 | 56 | 1017.3 |
| 20260902051246 | 77 | 0 | 0.0 | 2.0 | 0.00 | 0.00 | 0.00 | 56 | 1017.1 |
| 20260902050235 | 77 | 0 | 0.0 | 0.0 | 0.00 | 0.00 | 0.00 | 56 | 1017.1 |
| 20260902045230 | 77 | 222 | 0.0 | 1.0 | 0.00 | 0.00 | 0.00 | 56 | 1017.1 |
| 20260902044234 | 78 | 0 | 0.0 | 0.0 | 0.00 | 0.00 | 0.00 | 56 | 1017.2 |
| 20260902043206 | 78 | 0 | 0.0 | 1.0 | 0.00 | 0.00 | 0.00 | 56 | 1017.2 |
| 20260902042216 | 78 | 223 | 0.0 | 4.0 | 0.00 | 0.00 | 0.00 | 56 | 1017.3 |
| 20260902041239 | 78 | 215 | 0.0 | 3.0 | 0.00 | 0.00 | 0.00 | 56 | 1017.1 |
| 20260902040217 | 78 | 217 | 1.0 | 5.0 | 0.00 | 0.00 | 0.00 | 56 | 1017.1 |
| 20260902035226 | 78 | 225 | 1.0 | 5.0 | 0.00 | 0.00 | 0.00 | 56 | 1017.0 |
| 20260902034157 | 78 | 219 | 1.0 | 4.0 | 0.00 | 0.00 | 0.00 | 56 | 1017.1 |
| 20260902033222 | 79 | 217 | 0.0 | 3.0 | 0.00 | 0.00 | 0.00 | 56 | 1017.2 |
| 20260902031029 | 79 | 223 | 0.0 | 1.0 | 0.00 | 0.00 | 0.00 | 56 | 1017.3 |
| 20260902030004 | 79 | 233 | 0.0 | 2.0 | 0.00 | 0.00 | 0.00 | 57 | 1017.4 |
| 20260902025022 | 80 | 232 | 0.0 | 0.0 | 0.00 | 0.00 | 0.00 | 57 | 1017.5 |
| 20260902023953 | 80 | 216 | 0.0 | 2.0 | 0.00 | 0.00 | 0.00 | 57 | 1017.4 |
| 20260902023015 | 80 | 216 | 0.0 | 2.0 | 0.00 | 0.00 | 0.00 | 57 | 1017.4 |
| 20260902022029 | 80 | 202 | 0.0 | 0.0 | 0.00 | 0.00 | 0.00 | 57 | 1017.4 |
| 20260902021023 | 81 | 229 | 0.0 | 0.0 | 0.00 | 0.00 | 0.00 | 57 | 1017.3 |